Weather History for Milas, Turkey

Change the Weather History Date:

Friday, October 25, 2013

  Actual Average (LGKO) Record (LGKO)
Temperature  
Mean Temperature 62 °F -  
Max Temperature 77 °F 69 °F 80 °F (2003)
Min Temperature 46 °F 59 °F 53 °F (1996)
Degree Days  
Heating Degree Days 4    
Growing Degree Days 12 (Base 50)    
Moisture  
Dew Point 50 °F    
Average Humidity 70    
Maximum Humidity 93    
Minimum Humidity 38    
Precipitation  
Precipitation 0.00 in - - ()
Sea Level Pressure  
Sea Level Pressure 30.06 in    
Wind  
Wind Speed 4 mph ()    
Max Wind Speed 12 mph    
Max Gust Speed -    
Visibility 4.9 miles    
Events      
Averages and records for this station are not official NWS values.
T = Trace of Precipitation, MM = Missing Value Source: Averaged Metar Reports

Daily Weather History Graph

Daily Weather History Graph

Search for Another Location

Airport:

Trip Planner

Search our weather history database for the weather conditions in past years. The results will help you decide how hot, cold, wet, or windy it might be!

Date:

Astronomy

Oct. 25, 2013 Rise Set
Actual Time 7:26 AM EEST 6:19 PM EEST
Civil Twilight 7:00 AM EEST 6:46 PM EEST
Nautical Twilight 6:29 AM EEST 7:16 PM EEST
Astronomical Twilight 5:59 AM EEST 7:46 PM EEST
Moon 11:23 PM EEST (10/25) 12:52 PM EEST (10/25)
Length of Visible Light 11h 46m
Length of Day
10h 52m
Waning Gibbous, 65% of the Moon is Illuminated
Oct 25
Waning Gibbous
Oct 27
Last Quarter
Nov 3
New
Nov 10
First Quarter
Nov 17
Full

Hourly Weather History & Observations

Time (EEST) Temp. Windchill Dew Point Humidity Pressure Visibility Wind Dir Wind Speed Gust Speed Precip Events Conditions
12:20 AM 53.6 °F - 48.2 °F 82% 30.06 in - ESE 4.6 mph - N/A   Clear
12:50 AM 53.6 °F - 50.0 °F 88% 30.06 in - SE 3.5 mph - N/A   Clear
1:20 AM 53.6 °F - 50.0 °F 88% 30.06 in - Variable 2.3 mph - N/A   Clear
1:50 AM 53.6 °F - 48.2 °F 82% 30.06 in - Variable 2.3 mph - N/A   Clear
2:20 AM 51.8 °F - 48.2 °F 88% 30.06 in - SSE 4.6 mph - N/A   Clear
2:50 AM 50.0 °F - 46.4 °F 87% 30.06 in - SSE 3.5 mph - N/A   Clear
3:20 AM 51.8 °F - 48.2 °F 88% 30.06 in - Variable 2.3 mph - N/A   Clear
3:50 AM 51.8 °F - 48.2 °F 88% 30.06 in - Variable 2.3 mph - N/A   Clear
4:20 AM 48.2 °F - 46.4 °F 93% 30.06 in - SE 3.5 mph - N/A   Clear
4:50 AM 48.2 °F - 44.6 °F 87% 30.06 in 4.3 mi Variable 1.2 mph - N/A   Unknown
5:20 AM 48.2 °F - 46.4 °F 93% 30.06 in 5.0 mi ESE 3.5 mph - N/A   Unknown
5:50 AM 48.2 °F - 46.4 °F 93% 30.06 in 5.0 mi Variable 2.3 mph - N/A   Unknown
6:20 AM 48.2 °F - 46.4 °F 93% 30.06 in 5.0 mi East 2.3 mph - N/A   Unknown
6:50 AM 46.4 °F - 44.6 °F 93% 30.06 in 5.0 mi SE 2.3 mph - N/A   Unknown
7:20 AM 48.2 °F - 44.6 °F 87% 30.06 in 5.0 mi Variable 2.3 mph - N/A   Unknown
7:50 AM 46.4 °F 45.2 °F 42.8 °F 87% 30.06 in - ESE 3.5 mph - N/A   Clear
8:20 AM 50.0 °F - 46.4 °F 87% 30.06 in - SE 3.5 mph - N/A   Clear
8:50 AM 53.6 °F - 48.2 °F 82% 30.09 in - Variable 2.3 mph - N/A   Clear
9:20 AM 55.4 °F - 50.0 °F 82% 30.09 in - Variable 2.3 mph - N/A   Clear
9:50 AM 60.8 °F - 51.8 °F 72% 30.09 in - Variable 1.2 mph - N/A   Clear
10:20 AM 64.4 °F - 51.8 °F 64% 30.09 in - Variable 2.3 mph - N/A   Clear
10:50 AM 66.2 °F - 51.8 °F 60% 30.09 in - Variable 2.3 mph - N/A   Clear
11:20 AM 69.8 °F - 50.0 °F 49% 30.09 in - Variable 2.3 mph - N/A   Clear
11:50 AM 71.6 °F - 48.2 °F 43% 30.09 in - Variable 2.3 mph - N/A   Clear
12:20 PM 73.4 °F - 48.2 °F 41% 30.06 in - WSW 4.6 mph - N/A   Clear
12:50 PM 75.2 °F - 50.0 °F 41% 30.06 in - West 4.6 mph - N/A   Clear
1:20 PM 75.2 °F - 51.8 °F 44% 30.06 in - West 8.1 mph - N/A   Clear
1:50 PM 75.2 °F - 48.2 °F 38% 30.06 in - West 8.1 mph - N/A   Clear
2:20 PM 77.0 °F - 50.0 °F 39% 30.04 in - WNW 10.4 mph - N/A   Clear
2:50 PM 75.2 °F - 53.6 °F 47% 30.04 in - West 11.5 mph - N/A   Clear
3:20 PM 75.2 °F - 53.6 °F 47% 30.04 in - West 11.5 mph - N/A   Clear
3:50 PM 73.4 °F - 51.8 °F 47% 30.04 in - West 11.5 mph - N/A   Clear
4:20 PM 73.4 °F - 50.0 °F 44% 30.04 in - West 11.5 mph - N/A   Clear
4:50 PM 71.6 °F - 51.8 °F 50% 30.04 in - West 9.2 mph - N/A   Clear
5:20 PM 71.6 °F - 53.6 °F 53% 30.04 in - West 8.1 mph - N/A   Clear
5:50 PM 69.8 °F - 51.8 °F 53% 30.04 in - West 9.2 mph - N/A   Clear
6:20 PM 68.0 °F - 50.0 °F 52% 30.06 in - Variable 2.3 mph - N/A   Clear
6:50 PM 66.2 °F - 51.8 °F 60% 30.06 in - South 4.6 mph - N/A   Clear
7:20 PM 62.6 °F - 50.0 °F 63% 30.06 in - South 3.5 mph - N/A   Clear
7:50 PM 60.8 °F - 51.8 °F 72% 30.06 in - SSE 3.5 mph - N/A   Clear
8:20 PM 60.8 °F - 51.8 °F 72% 30.06 in - SSE 5.8 mph - N/A   Clear
8:50 PM 59.0 °F - 51.8 °F 77% 30.06 in - Variable 2.3 mph - N/A   Clear
9:20 PM 60.8 °F - 51.8 °F 72% 30.06 in - South 2.3 mph - N/A   Clear
9:50 PM 57.2 °F - 51.8 °F 82% 30.09 in - SE 2.3 mph - N/A   Clear
10:20 PM 57.2 °F - 51.8 °F 82% 30.09 in - Variable 1.2 mph - N/A   Clear
10:50 PM 57.2 °F - 51.8 °F 82% 30.09 in - SSE 3.5 mph - N/A   Clear
11:20 PM 55.4 °F - 50.0 °F 82% 30.09 in - SE 3.5 mph - N/A   Clear
11:50 PM 53.6 °F - 50.0 °F 88% 30.09 in - ESE 2.3 mph - N/A   Clear